DW9210 Weather Reports


time (UTC)temp
C
wind
direction
speed
KPH
gust
KPH
rain 1hr
cm
rain 24hr
cm
rain mn
cm
humidity
%
barometer
mb
20260903200503 35 285 3.2 6.4 0.00 0.00 0.00 57 1013.4
20260903200003 35 287 3.2 6.4 0.00 0.00 0.00 57 1013.5
20260903195524 35 277 4.8 9.7 0.00 0.00 0.00 56 1013.5
20260903195003 35 277 4.8 9.7 0.00 0.00 0.00 55 1013.6
20260903194503 35 287 3.2 9.7 0.00 0.00 0.00 58 1013.6
20260903194003 35 275 3.2 14.5 0.00 0.00 0.00 54 1013.7
20260903193524 35 274 6.4 14.5 0.00 0.00 0.00 55 1013.7
20260903193003 35 270 6.4 12.9 0.00 0.00 0.00 55 1013.7
20260903192503 35 274 4.8 12.9 0.00 0.00 0.00 53 1013.7
20260903192003 35 295 4.8 9.7 0.00 0.00 0.00 59 1013.8
20260903191503 35 293 4.8 9.7 0.00 0.00 0.00 55 1013.9
20260903191003 35 285 4.8 11.3 0.00 0.00 0.00 55 1014.0
20260903190503 35 290 4.8 11.3 0.00 0.00 0.00 57 1014.1
20260903190003 35 291 3.2 8.0 0.00 0.00 0.00 59 1014.0
20260903185503 35 272 4.8 14.5 0.00 0.00 0.00 57 1014.1
20260903185003 35 267 6.4 17.7 0.00 0.00 0.00 51 1014.1
20260903184503 36 270 4.8 17.7 0.00 0.00 0.00 57 1014.2
20260903184003 36 251 4.8 9.7 0.00 0.00 0.00 54 1014.2
20260903183503 35 256 6.4 16.1 0.00 0.00 0.00 52 1014.2
20260903183003 35 268 4.8 16.1 0.00 0.00 0.00 51 1014.3
20260903182524 35 290 3.2 12.9 0.00 0.00 0.00 56 1014.3
20260903182024 35 278 4.8 12.9 0.00 0.00 0.00 56 1014.3
20260903181503 35 253 4.8 12.9 0.00 0.00 0.00 51 1014.4
20260903181003 35 247 4.8 12.9 0.00 0.00 0.00 51 1014.4
20260903180503 35 262 6.4 12.9 0.00 0.00 0.00 52 1014.5
20260903180024 35 261 4.8 12.9 0.00 0.00 0.00 53 1014.5
20260903175503 35 257 4.8 14.5 0.00 0.00 0.00 56 1014.6
20260903175003 35 251 6.4 16.1 0.00 0.00 0.00 51 1014.6
20260903174524 35 245 3.2 16.1 0.00 0.00 0.00 52 1014.7
20260903174003 35 268 3.2 8.0 0.00 0.00 0.00 54 1014.7
20260903173503 35 288 3.2 8.0 0.00 0.00 0.00 52 1014.8
20260903173003 35 282 4.8 12.9 0.00 0.00 0.00 55 1014.8
20260903172503 35 272 6.4 12.9 0.00 0.00 0.00 51 1014.8
20260903172003 35 266 4.8 11.3 0.00 0.00 0.00 59 1014.9
20260903171503 34 269 6.4 16.1 0.00 0.00 0.00 59 1014.9
20260903171003 34 277 6.4 16.1 0.00 0.00 0.00 53 1014.9
20260903170503 34 269 6.4 14.5 0.00 0.00 0.00 58 1014.9
20260903170003 34 264 6.4 14.5 0.00 0.00 0.00 52 1015.0
20260903165524 34 263 6.4 12.9 0.00 0.00 0.00 56 1015.0
20260903165003 34 254 6.4 12.9 0.00 0.00 0.00 53 1015.1
20260903164524 34 252 8.0 14.5 0.00 0.00 0.00 52 1015.2
20260903164003 34 248 4.8 14.5 0.00 0.00 0.00 52 1015.2
20260903163503 34 247 3.2 12.9 0.00 0.00 0.00 56 1015.2
20260903163003 34 256 4.8 12.9 0.00 0.00 0.00 57 1015.3
20260903162503 34 264 6.4 12.9 0.00 0.00 0.00 60 1015.3
20260903162003 34 273 4.8 12.9 0.00 0.00 0.00 54 1015.3
20260903161503 34 284 3.2 8.0 0.00 0.00 0.00 60 1015.3
20260903161003 33 285 3.2 8.0 0.00 0.00 0.00 60 1015.3
20260903160503 33 288 3.2 8.0 0.00 0.00 0.00 58 1015.3
20260903160003 33 283 4.8 9.7 0.00 0.00 0.00 58 1015.4
20260903155503 33 274 4.8 9.7 0.00 0.00 0.00 61 1015.4
20260903155003 33 268 3.2 9.7 0.00 0.00 0.00 59 1015.4
20260903154503 33 256 3.2 8.0 0.00 0.00 0.00 56 1015.4
20260903154003 33 229 3.2 6.4 0.00 0.00 0.00 60 1015.4
20260903153524 33 228 3.2 8.0 0.00 0.00 0.00 58 1015.4
20260903153024 33 230 3.2 8.0 0.00 0.00 0.00 59 1015.4
20260903152503 33 238 1.6 6.4 0.00 0.00 0.00 61 1015.4
20260903152003 33 296 1.6 4.8 0.00 0.00 0.00 62 1015.4
20260903151524 32 290 1.6 6.4 0.00 0.00 0.00 63 1015.5
20260903151003 32 266 3.2 8.0 0.00 0.00 0.00 65 1015.5
20260903150524 32 273 3.2 8.0 0.00 0.00 0.00 64 1015.3
20260903150024 32 278 3.2 6.4 0.00 0.00 0.00 67 1015.3
20260903145503 32 274 3.2 6.4 0.00 0.00 0.00 67 1015.4
20260903145003 32 279 1.6 6.4 0.00 0.00 0.00 69 1015.4
20260903144503 31 274 3.2 6.4 0.00 0.00 0.00 69 1015.3
20260903144003 31 287 3.2 6.4 0.00 0.00 0.00 72 1015.3
20260903143503 31 279 3.2 6.4 0.00 0.00 0.00 71 1015.3
20260903143024 31 258 4.8 8.0 0.00 0.00 0.00 72 1015.3
20260903142503 31 259 4.8 8.0 0.00 0.00 0.00 68 1015.3
20260903142003 30 269 3.2 8.0 0.00 0.00 0.00 69 1015.3
20260903141503 30 269 3.2 6.4 0.00 0.00 0.00 71 1015.3
20260903141003 30 278 3.2 6.4 0.00 0.00 0.00 71 1015.3
20260903140503 30 286 3.2 6.4 0.00 0.00 0.00 73 1015.3
20260903140003 30 280 4.8 9.7 0.00 0.00 0.00 75 1015.4
20260903135503 30 267 4.8 9.7 0.00 0.00 0.00 76 1015.4
20260903135024 29 261 4.8 9.7 0.00 0.00 0.00 75 1015.5
20260903134503 28 259 4.8 9.7 0.00 0.00 0.00 77 1015.5
20260903134003 28 262 3.2 9.7 0.00 0.00 0.00 77 1015.5
20260903133503 28 265 3.2 8.0 0.00 0.00 0.00 79 1015.5
20260903133003 28 254 3.2 6.4 0.00 0.00 0.00 79 1015.6
20260903132503 28 245 3.2 6.4 0.00 0.00 0.00 80 1015.7
20260903132003 27 235 3.2 8.0 0.00 0.00 0.00 80 1015.7
20260903131524 27 233 3.2 8.0 0.00 0.00 0.00 80 1015.8
20260903131003 27 232 1.6 8.0 0.00 0.00 0.00 82 1015.7
20260903130524 27 224 1.6 4.8 0.00 0.00 0.00 83 1015.9
20260903130003 26 217 1.6 4.8 0.00 0.00 0.00 83 1016.0
20260903125503 26 201 0.0 6.4 0.00 0.00 0.00 87 1016.0
20260903125003 25 203 0.0 6.4 0.00 0.00 0.00 90 1016.0
20260903124524 25 180 0.0 1.6 0.00 0.00 0.00 92 1016.0
20260903124003 24 204 0.0 1.6 0.00 0.00 0.00 93 1016.0
20260903123524 23 0 0.0 0.0 0.00 0.00 0.00 94 1016.1
20260903123003 23 0 0.0 0.0 0.00 0.00 0.00 94 1016.1
20260903122503 23 0 0.0 0.0 0.00 0.00 0.00 95 1016.1
20260903122003 22 0 0.0 0.0 0.00 0.00 0.00 95 1016.1
20260903121503 22 0 0.0 0.0 0.00 0.00 0.00 95 1016.1
20260903121003 22 0 0.0 0.0 0.00 0.00 0.00 96 1016.1
20260903120524 22 0 0.0 0.0 0.00 0.00 0.00 96 1016.0
20260903120003 21 0 0.0 0.0 0.00 0.00 0.00 97 1016.0
20260903115503 21 0 0.0 0.0 0.00 0.00 0.00 98 1015.9
20260903115003 21 0 0.0 0.0 0.00 0.00 0.00 98 1015.9
20260903114503 21 0 0.0 0.0 0.00 0.00 0.00 97 1015.9
20260903114024 21 0 0.0 0.0 0.00 0.00 0.00 97 1015.8
20260903113503 20 0 0.0 0.0 0.00 0.00 0.00 97 1015.8
20260903113003 20 0 0.0 0.0 0.00 0.00 0.00 97 1015.7
20260903112503 20 0 0.0 0.0 0.00 0.00 0.00 97 1015.7
20260903112003 20 0 0.0 0.0 0.00 0.00 0.00 97 1015.6
20260903111503 20 0 0.0 0.0 0.00 0.00 0.00 97 1015.6
20260903111003 20 0 0.0 0.0 0.00 0.00 0.00 97 1015.5
20260903110503 20 0 0.0 0.0 0.00 0.00 0.00 97 1015.5
20260903110024 20 0 0.0 0.0 0.00 0.00 0.00 97 1015.4
20260903105503 20 0 0.0 0.0 0.00 0.00 0.00 97 1015.4
20260903105024 20 0 0.0 0.0 0.00 0.00 0.00 97 1015.4
20260903104503 20 0 0.0 0.0 0.00 0.00 0.00 97 1015.4
20260903104003 20 0 0.0 0.0 0.00 0.00 0.00 97 1015.4
20260903103503 20 0 0.0 0.0 0.00 0.00 0.00 97 1015.3
20260903103003 20 0 0.0 0.0 0.00 0.00 0.00 97 1015.4
20260903102503 20 0 0.0 0.0 0.00 0.00 0.00 97 1015.4
20260903102024 20 0 0.0 0.0 0.00 0.00 0.00 97 1015.3
20260903101503 20 0 0.0 0.0 0.00 0.00 0.00 96 1015.4
20260903101003 20 0 0.0 0.0 0.00 0.00 0.00 96 1015.4
20260903100503 20 0 0.0 0.0 0.00 0.00 0.00 96 1015.4
20260903100003 20 0 0.0 0.0 0.00 0.00 0.00 96 1015.3
20260903095503 21 0 0.0 0.0 0.00 0.00 0.00 96 1015.3
20260903095003 21 0 0.0 0.0 0.00 0.00 0.00 97 1015.3
20260903094503 21 0 0.0 0.0 0.00 0.00 0.00 97 1015.3
20260903094003 21 0 0.0 0.0 0.00 0.00 0.00 97 1015.3
20260903093503 21 0 0.0 0.0 0.00 0.00 0.00 97 1015.3
20260903093003 21 0 0.0 0.0 0.00 0.00 0.00 97 1015.3
20260903092503 21 0 0.0 0.0 0.00 0.00 0.00 97 1015.3
20260903092003 21 0 0.0 0.0 0.00 0.00 0.00 96 1015.3
20260903091503 21 0 0.0 0.0 0.00 0.00 0.00 96 1015.2
20260903091003 21 0 0.0 0.0 0.00 0.00 0.00 96 1015.1
20260903090503 21 0 0.0 0.0 0.00 0.00 0.00 96 1015.1
20260903090024 21 0 0.0 0.0 0.00 0.00 0.00 96 1015.1
20260903085503 21 0 0.0 0.0 0.00 0.00 0.00 96 1015.1
20260903085003 21 0 0.0 0.0 0.00 0.00 0.00 96 1015.0
20260903084503 21 0 0.0 0.0 0.00 0.00 0.00 96 1015.1
20260903084004 21 0 0.0 0.0 0.00 0.00 0.00 96 1015.0
20260903083524 21 0 0.0 0.0 0.00 0.00 0.00 96 1015.0
20260903083003 21 0 0.0 0.0 0.00 0.00 0.00 96 1015.0
20260903082503 21 0 0.0 0.0 0.00 0.00 0.00 96 1015.0
20260903082003 21 0 0.0 0.0 0.00 0.00 0.00 96 1015.0
20260903081503 21 0 0.0 0.0 0.00 0.00 0.00 96 1015.0
20260903081024 21 0 0.0 0.0 0.00 0.00 0.00 96 1015.0
20260903080503 21 0 0.0 0.0 0.00 0.00 0.00 96 1014.9
20260903080003 21 0 0.0 0.0 0.00 0.00 0.00 96 1015.0
20260903075503 21 0 0.0 0.0 0.00 0.00 0.00 96 1014.9
20260903075024 21 0 0.0 0.0 0.00 0.00 0.00 96 1014.9
20260903074503 21 0 0.0 0.0 0.00 0.00 0.00 96 1014.9
20260903074003 21 0 0.0 0.0 0.00 0.00 0.00 96 1014.9
20260903073503 21 0 0.0 0.0 0.00 0.00 0.00 96 1014.9
20260903073003 21 0 0.0 0.0 0.00 0.00 0.00 96 1014.9
20260903072503 21 0 0.0 0.0 0.00 0.00 0.00 96 1014.8
20260903072003 21 0 0.0 0.0 0.00 0.00 0.00 96 1014.8
20260903071503 21 0 0.0 0.0 0.00 0.00 0.00 95 1014.8
20260903071003 21 0 0.0 0.0 0.00 0.00 0.00 96 1014.8
20260903070503 21 0 0.0 0.0 0.00 0.00 0.00 96 1014.7
20260903070003 21 0 0.0 0.0 0.00 0.00 0.00 96 1014.7
20260903065524 21 0 0.0 0.0 0.00 0.00 0.00 96 1014.7
20260903065003 21 0 0.0 0.0 0.00 0.00 0.00 96 1014.6
20260903064503 21 0 0.0 0.0 0.00 0.00 0.00 96 1014.7
20260903064003 21 0 0.0 0.0 0.00 0.00 0.00 95 1014.6
20260903063524 21 0 0.0 0.0 0.00 0.00 0.00 95 1014.6
20260903063003 21 0 0.0 0.0 0.00 0.00 0.00 96 1014.6
20260903062524 21 0 0.0 0.0 0.00 0.00 0.00 95 1014.5
20260903062003 21 0 0.0 0.0 0.00 0.00 0.00 95 1014.6
20260903061503 22 0 0.0 0.0 0.00 0.00 0.00 95 1014.6
20260903061003 22 0 0.0 0.0 0.00 0.00 0.00 96 1014.6
20260903060503 22 0 0.0 0.0 0.00 0.00 0.00 95 1014.7
20260903060003 22 0 0.0 0.0 0.00 0.00 0.00 95 1014.8
20260903055503 22 0 0.0 0.0 0.00 0.00 0.00 95 1014.8
20260903055003 22 0 0.0 0.0 0.00 0.00 0.00 95 1014.8
20260903054503 22 0 0.0 0.0 0.00 0.00 0.00 95 1014.8
20260903054003 22 0 0.0 0.0 0.00 0.00 0.00 95 1014.8
20260903053503 22 0 0.0 0.0 0.00 0.00 0.00 95 1014.8
20260903053024 22 0 0.0 0.0 0.00 0.00 0.00 95 1014.8
20260903052503 22 0 0.0 0.0 0.00 0.00 0.00 95 1014.8
20260903052003 22 0 0.0 0.0 0.00 0.00 0.00 95 1014.8
20260903051503 22 0 0.0 0.0 0.00 0.00 0.00 95 1014.8
20260903051024 22 0 0.0 0.0 0.00 0.00 0.00 95 1014.7
20260903050503 22 0 0.0 0.0 0.00 0.00 0.00 95 1014.7
20260903050003 22 0 0.0 0.0 0.00 0.00 0.00 95 1014.7
20260903045503 22 0 0.0 0.0 0.00 0.00 0.00 95 1014.7
20260903045003 22 0 0.0 0.0 0.00 0.00 0.00 95 1014.6
20260903044524 22 0 0.0 0.0 0.00 0.00 0.00 95 1014.5
20260903044003 22 0 0.0 0.0 0.00 0.00 0.00 95 1014.5
20260903043503 22 0 0.0 0.0 0.00 0.00 0.00 95 1014.6
20260903043003 22 0 0.0 0.0 0.00 0.00 0.00 95 1014.6
20260903042503 22 0 0.0 0.0 0.00 0.00 0.00 95 1014.6
20260903042003 22 0 0.0 0.0 0.00 0.00 0.00 95 1014.6
20260903041503 22 0 0.0 0.0 0.00 0.00 0.00 94 1014.7
20260903041024 22 0 0.0 0.0 0.00 0.00 0.00 94 1014.7
20260903040503 22 0 0.0 0.0 0.00 0.00 0.00 94 1014.6
20260903040003 22 0 0.0 0.0 0.00 0.00 0.00 94 1014.6
20260903035503 22 0 0.0 0.0 0.00 0.00 0.00 94 1014.5
20260903035003 22 0 0.0 0.0 0.00 0.00 0.00 94 1014.6
20260903034503 22 0 0.0 0.0 0.00 0.00 0.00 94 1014.5
20260903034003 22 0 0.0 0.0 0.00 0.00 0.00 94 1014.5
20260903033503 23 0 0.0 0.0 0.00 0.00 0.00 94 1014.5
20260903033003 23 0 0.0 0.0 0.00 0.00 0.00 93 1014.6
20260903032524 23 262 0.0 1.6 0.00 0.00 0.00 94 1014.6
20260903032003 23 262 0.0 1.6 0.00 0.00 0.00 94 1014.7
20260903031503 23 0 0.0 0.0 0.00 0.00 0.00 93 1014.7
20260903031003 23 0 0.0 0.0 0.00 0.00 0.00 93 1014.7
20260903030503 23 0 0.0 0.0 0.00 0.00 0.00 93 1014.7
20260903030003 23 0 0.0 0.0 0.00 0.00 0.00 93 1014.7
20260903025503 23 0 0.0 0.0 0.00 0.00 0.00 93 1014.7
20260903025003 23 0 0.0 0.0 0.00 0.00 0.00 92 1014.8
20260903024503 23 0 0.0 0.0 0.00 0.00 0.00 93 1014.8
20260903024003 23 0 0.0 0.0 0.00 0.00 0.00 92 1014.7
20260903023503 23 0 0.0 0.0 0.00 0.00 0.00 92 1014.7
20260903023003 23 0 0.0 0.0 0.00 0.00 0.00 92 1014.8
20260903022524 23 0 0.0 0.0 0.00 0.00 0.00 92 1014.8
20260903022003 23 0 0.0 0.0 0.00 0.00 0.00 91 1014.7
20260903021503 24 0 0.0 0.0 0.00 0.00 0.00 91 1014.8
20260903021003 24 0 0.0 0.0 0.00 0.00 0.00 91 1014.8
20260903020503 24 0 0.0 0.0 0.00 0.00 0.00 90 1014.8
20260903020003 24 0 0.0 0.0 0.00 0.00 0.00 90 1014.7
20260903015503 24 0 0.0 0.0 0.00 0.00 0.00 89 1014.8
20260903015003 24 0 0.0 0.0 0.00 0.00 0.00 89 1014.8
20260903014503 25 0 0.0 0.0 0.00 0.00 0.00 88 1014.8
20260903014003 25 0 0.0 0.0 0.00 0.00 0.00 89 1014.7
20260903013503 25 0 0.0 0.0 0.00 0.00 0.00 88 1014.7
20260903013003 25 0 0.0 0.0 0.00 0.00 0.00 88 1014.7
20260903012503 25 0 0.0 0.0 0.00 0.00 0.00 87 1014.7
20260903012003 25 0 0.0 0.0 0.00 0.00 0.00 86 1014.6
20260903011503 25 0 0.0 0.0 0.00 0.00 0.00 86 1014.6
20260903011024 26 0 0.0 0.0 0.00 0.00 0.00 85 1014.6
20260903010503 26 0 0.0 0.0 0.00 0.00 0.00 84 1014.5
20260903010003 26 264 0.0 1.6 0.00 0.00 0.00 84 1014.4
20260903005503 26 264 0.0 1.6 0.00 0.00 0.00 81 1014.5
20260903005003 26 264 0.0 1.6 0.00 0.00 0.00 80 1014.4
20260903004503 26 264 0.0 1.6 0.00 0.00 0.00 79 1014.4
20260903004003 27 0 0.0 0.0 0.00 0.00 0.00 78 1014.4
20260903003503 27 0 0.0 0.0 0.00 0.00 0.00 78 1014.3
20260903003003 27 0 0.0 0.0 0.00 0.00 0.00 76 1014.3
20260903002503 28 0 0.0 0.0 0.00 0.00 0.00 76 1014.4
20260903002003 28 0 0.0 0.0 0.00 0.00 0.00 74 1014.3
20260903001503 28 0 0.0 0.0 0.00 0.00 0.00 73 1014.3
20260903001003 28 264 0.0 1.6 0.00 0.00 0.00 73 1014.3
20260903000503 29 264 0.0 1.6 0.00 0.00 0.00 72 1014.3
20260903000003 30 264 0.0 1.6 0.00 0.00 0.00 72 1014.3
20260902235503 30 264 0.0 1.6 0.00 0.00 0.00 70 1014.3
20260902235024 30 264 0.0 1.6 0.00 0.00 0.00 71 1014.3
20260902234503 31 263 0.0 1.6 0.00 0.00 0.00 69 1014.3
20260902234003 31 246 0.0 3.2 0.00 0.00 0.00 66 1014.4
20260902233503 31 248 0.0 3.2 0.00 0.00 0.00 66 1014.3
20260902233003 32 256 0.0 1.6 0.00 0.00 0.00 63 1014.4
20260902232503 32 257 0.0 3.2 0.00 0.00 0.00 60 1014.4
20260902232024 33 257 1.6 3.2 0.00 0.00 0.00 57 1014.4
20260902231524 33 253 1.6 3.2 0.00 0.00 0.00 55 1014.4
20260902231024 33 241 1.6 3.2 0.00 0.00 0.00 54 1014.4
20260902230503 34 243 1.6 4.8 0.00 0.00 0.00 55 1014.4
20260902230024 34 252 1.6 4.8 0.00 0.00 0.00 52 1014.4
20260902225503 34 254 3.2 6.4 0.00 0.00 0.00 51 1014.4
20260902225024 35 249 3.2 8.0 0.00 0.00 0.00 50 1014.4
20260902224503 35 242 3.2 8.0 0.00 0.00 0.00 50 1014.4
20260902224003 35 240 3.2 6.4 0.00 0.00 0.00 50 1014.4
20260902223503 35 242 3.2 6.4 0.00 0.00 0.00 51 1014.4
20260902223003 35 247 3.2 8.0 0.00 0.00 0.00 52 1014.4
20260902222503 35 257 3.2 8.0 0.00 0.00 0.00 49 1014.4
20260902222003 35 261 4.8 12.9 0.00 0.00 0.00 54 1014.4
20260902221503 35 262 4.8 12.9 0.00 0.00 0.00 53 1014.5
20260902221003 35 252 3.2 6.4 0.00 0.00 0.00 51 1014.5
20260902220503 35 241 3.2 9.7 0.00 0.00 0.00 53 1014.6
20260902220003 35 243 3.2 9.7 0.00 0.00 0.00 53 1014.7
20260902215503 35 243 3.2 9.7 0.00 0.00 0.00 49 1014.6
20260902215003 35 256 3.2 9.7 0.00 0.00 0.00 51 1014.7
20260902214503 35 260 4.8 9.7 0.00 0.00 0.00 53 1014.7
20260902214003 35 256 3.2 8.0 0.00 0.00 0.00 54 1014.7
20260902213503 35 267 3.2 8.0 0.00 0.00 0.00 50 1014.7
20260902213003 35 277 3.2 9.7 0.00 0.00 0.00 53 1014.7
20260902212503 35 270 4.8 12.9 0.00 0.00 0.00 51 1014.7
20260902212003 36 268 4.8 12.9 0.00 0.00 0.00 52 1014.7
20260902211503 35 262 4.8 12.9 0.00 0.00 0.00 48 1014.8
20260902211024 35 247 3.2 9.7 0.00 0.00 0.00 48 1014.7
20260902210503 35 263 4.8 11.3 0.00 0.00 0.00 47 1014.8
20260902210024 35 262 4.8 11.3 0.00 0.00 0.00 51 1014.8
20260902205503 35 249 4.8 11.3 0.00 0.00 0.00 49 1014.8
20260902205003 35 245 4.8 11.3 0.00 0.00 0.00 49 1014.8
20260902204503 35 251 3.2 8.0 0.00 0.00 0.00 52 1014.7
20260902204003 35 264 4.8 12.9 0.00 0.00 0.00 53 1014.8
20260902203524 35 256 4.8 12.9 0.00 0.00 0.00 49 1014.9
20260902203024 35 246 3.2 11.3 0.00 0.00 0.00 49 1015.0
20260902202503 35 239 4.8 9.7 0.00 0.00 0.00 53 1014.9
20260902202003 35 239 4.8 11.3 0.00 0.00 0.00 50 1015.0
20260902201503 35 253 4.8 11.3 0.00 0.00 0.00 50 1015.0
20260902201003 35 266 3.2 8.0 0.00 0.00 0.00 53 1015.1